Location: *
(43.0833°N, 13.0500°E)
Time: 13:24:00
(UTC+00:00)

Envisat - Visible Passes

Search period start: 18 February 2020 00:00
Search period end: 28 February 2020 00:00
Orbit: 764 x 766 km, 98.1° (Epoch: 17 February)

Date Brightness Start Highest point End Pass type
(mag) Time Alt. Az. Time Alt. Az. Time Alt. Az.
18 Feb 5.9 04:44:03 10° NE 04:47:49 21° E 04:51:33 10° SE visible
18 Feb 4.9 17:38:03 10° SSW 17:42:38 34° W 17:47:16 10° NNW visible
20 Feb 4.9 05:08:50 10° NNE 05:13:30 35° E 05:18:07 10° SSE visible
20 Feb 5.9 18:04:40 10° SW 18:08:20 20° W 18:12:01 10° NW visible
21 Feb 6.2 04:33:15 10° NE 04:36:24 16° E 04:39:32 10° SE visible
21 Feb 4.5 17:26:29 10° S 17:31:17 43° W 17:36:08 10° NNW visible
22 Feb 6.5 18:32:42 10° WSW 18:34:07 11° W 18:35:33 10° WNW visible
23 Feb 5.4 04:57:45 10° NE 05:02:07 28° E 05:06:27 10° SSE visible
23 Feb 5.5 17:52:47 10° SSW 17:56:56 25° W 18:01:06 10° NW visible
24 Feb 6.5 04:22:44 10° ENE 04:24:58 13° E 04:27:10 10° ESE visible
24 Feb 4.0 17:14:59 10° S 17:19:56 54° W 17:24:57 10° NNW visible
25 Feb 6.3 18:19:58 10° WSW 18:22:41 14° W 18:25:24 10° WNW visible
26 Feb 5.8 04:46:46 10° NE 04:50:44 22° E 04:54:39 10° SE visible
26 Feb 5.1 17:41:04 10° SSW 17:45:33 31° W 17:50:03 10° NNW visible
